Location: Newark
(45.4422°N, 16.2769°E)
Time: 03:57:28
(UTC+00:00)

A-11 Canister half - Visible Passes

Search period start: 12 December 2019 00:00
Search period end: 22 December 2019 00:00
Orbit: 1515 x 1685 km, 47.2° (Epoch: 10 December)

Date Brightness Start Highest point End Pass type
(mag) Time Alt. Az. Time Alt. Az. Time Alt. Az.
12 Dec 9.5 15:33:55 10° WNW 15:43:52 74° SSW 15:53:59 10° SE visible
12 Dec 10.6 17:39:26 10° WNW 17:47:53 32° SW 17:56:23 10° S visible
13 Dec 10.6 17:16:25 10° WNW 17:25:01 34° SW 17:33:43 10° SSE visible
14 Dec 10.6 16:53:24 10° WNW 17:02:09 36° SW 17:11:01 10° SSE visible
15 Dec 10.6 16:30:25 10° WNW 16:39:17 38° SW 16:48:17 10° SSE visible
16 Dec 10.5 16:07:26 10° WNW 16:16:25 40° SW 16:25:33 10° SSE visible
17 Dec 10.5 15:44:26 10° WNW 15:53:32 42° SW 16:02:47 10° SSE visible
17 Dec 11.8 17:54:22 10° WSW 17:56:28 11° WSW 17:58:35 10° SW visible
18 Dec 11.7 17:30:19 10° WSW 17:33:40 12° WSW 17:37:03 10° SW visible
19 Dec 11.7 17:06:40 10° W 17:10:52 13° WSW 17:15:07 10° SSW visible
20 Dec 11.8 16:43:12 10° W 16:48:04 15° WSW 16:52:58 10° SSW visible
21 Dec 11.6 05:57:25 10° S 06:03:45 21° SE 06:10:11 10° E visible
21 Dec 11.8 16:19:51 10° W 16:25:15 16° SW 16:30:44 10° SSW visible
